Location: Newark
(52.2090°N, 4.1550°W)
Time: 13:34:51
(UTC+00:00)

Explorer 7 - Pass Details

Date: 21 September 2019
Orbit: 485 x 680 km, 50.3° (Epoch: 19 October)

Event Time Altitude Azimuth Distance (km) Brightness Sun altitude
Rises 00:11:08 0° 244° (WSW) 2,862 - -36.9°
Reaches altitude 10° 00:13:24 10° 240° (WSW) 1,990 - -36.9°
Maximum altitude 00:17:54 56° 163° (SSE) 773 - -36.9°
Drops below altitude 10° 00:22:38 10° 86° (E) 2,090 - -36.8°
Sets 00:25:03 0° 82° (E) 3,021 - -36.8°
